This demonstration page uses our WeatherBlox Daily Observations layout. Learn more.

36.19886, -115.1175

Hourly Observations for July 31, 2019

Temp ( °F °C ) Dew Point ( °F °C ) Humidity (%) Winds ( mph kmh ) Pressure ( in mb ) Visibility ( mi km ) Precip ( " mm )
12:53 am 00:53 Clear 94 34.4 52 11.1 24 24 SSE 6 9 29.8 1009 10 16.09344 0 0
1:53 am 01:53 Clear 93 33.9 52 11.1 25 25 S 6 9 29.8 1009 10 16.09344 0 0
2:53 am 02:53 Clear 93 33.9 52 11.1 25 25 S 7 11 29.8 1009 10 16.09344 0 0
3:53 am 03:53 Clear 91 32.8 50 10 25 25 S 9 15 29.8 1009 10 16.09344 0 0
4:53 am 04:53 Clear 91 32.8 47 8.3 22 22 SSE 5 7 29.83 1010 10 16.09344 0 0
5:53 am 05:53 Sunny 89 31.7 57 13.9 34 34 SSE 12 19 29.85 1011 10 16.09344 0 0
6:53 am 06:53 Sunny 89 31.7 59 15 36 36 SSE 13 20 29.85 1011 10 16.09344 0 0
7:53 am 07:53 Sunny 88 31.1 62 16.7 42 42 SSE 12 19 29.88 1012 10 16.09344 0 0
8:53 am 08:53 Sunny 89 31.7 62 16.7 41 41 SSE 18 30 29.91 1013 10 16.09344 0 0
9:53 am 09:53 Sunny 90 32.2 61 16.1 38 38 SE 18 30 29.91 1013 10 16.09344 0 0
10:53 am 10:53 Sunny 90 32.2 62 16.7 39 39 ESE 24 39 29.94 1014 10 16.09344 0 0
11:53 am 11:53 Sunny 92 33.3 63 17.2 38 38 E 18 30 29.94 1014 10 16.09344 0 0
12:53 pm 12:53 Sunny 93 33.9 61 16.1 34 34 E 18 30 29.94 1014 10 16.09344 0 0
1:53 pm 13:53 Sunny 92 33.3 61 16.1 36 36 ESE 14 22 29.94 1014 10 16.09344 0 0
2:53 pm 14:53 Mostly Cloudy with Light Rain 89 31.7 62 16.7 41 41 ESE 6 9 29.94 1014 10 16.09344 0.001 0.001
3:46 pm 15:46 Partly Cloudy 85 29.4 63 17.2 48 48 WSW 10 17 29.83 1010 10 16.09344 0.001 0.001
3:53 pm 15:53 Mostly Sunny 86 30 62 16.7 45 45 SW 13 20 29.91 1013 10 16.09344 0.001 0.001
4:53 pm 16:53 Sunny 89 31.7 62 16.7 41 41 SSW 7 11 29.88 1012 10 16.09344 0 0
5:53 pm 17:53 Sunny 90 32.2 63 17.2 41 41 SSE 13 20 29.88 1012 10 16.09344 0 0
6:53 pm 18:53 Sunny 89 31.7 61 16.1 39 39 ESE 5 7 29.88 1012 10 16.09344 0 0
7:53 pm 19:53 Clear 89 31.7 61 16.1 39 39 SSE 10 17 29.91 1013 10 16.09344 0 0
8:53 pm 20:53 Clear 87 30.6 61 16.1 42 42 E 12 19 29.91 1013 10 16.09344 0 0
9:53 pm 21:53 Clear 86 30 60 15.6 42 42 E 13 20 29.94 1014 10 16.09344 0 0
10:53 pm 22:53 Clear 85 29.4 60 15.6 43 43 ESE 8 13 29.94 1014 10 16.09344 0 0
11:53 pm 23:53 Clear 85 29.4 60 15.6 43 43 SSW 3 6 29.94 1014 10 16.09344 0 0

Powered by AerisWeather